Weather History for Middletown, OH

Change the Weather History Date:

Friday, December 13, 2013

  Actual Average (KDAY) Record (KDAY)
Temperature  
Mean Temperature 24 °F 32 °F  
Max Temperature 35 °F 38 °F 66 °F (1901)
Min Temperature 12 °F 25 °F -6 °F (1960)
Degree Days  
Heating Degree Days 42 33  
Month to date heating degree days 406  
Since 1 July heating degree days 1517  
Cooling Degree Days 0 0  
Month to date cooling degree days 0  
Year to date cooling degree days 891  
Moisture  
Dew Point 15 °F    
Average Humidity 67    
Maximum Humidity 88    
Minimum Humidity 45    
Precipitation  
Precipitation 0.00 in 0.10 in 1.47 in (1923)
Month to date precipitation 1.34  
Year to date precipitation 39.27  
Snow  
Snow 0.00 in 0.10 in 3.80 in (1937)
Month to date snowfall 1.4  
Since 1 July snowfall 2.4  
Snow Depth -    
Sea Level Pressure  
Sea Level Pressure 30.25 in    
Wind  
Wind Speed 3 mph (SW)    
Max Wind Speed 9 mph    
Max Gust Speed -    
Visibility 10 miles    
Events Snow    
T = Trace of Precipitation, MM = Missing Value Source: NWS Daily Summary

Daily Weather History Graph

Daily Weather History Graph

Search for Another Location

Airport:

Trip Planner

Search our weather history database for the weather conditions in past years. The results will help you decide how hot, cold, wet, or windy it might be!

Date:

Astronomy

Dec. 13, 2013 Rise Set
Actual Time 7:49 AM EST 5:14 PM EST
Civil Twilight 7:19 AM EST 5:44 PM EST
Nautical Twilight 6:45 AM EST 6:18 PM EST
Astronomical Twilight 6:12 AM EST 6:50 PM EST
Moon 2:56 PM EST (12/13) 4:12 AM EST (12/13)
Length of Visible Light 10h 25m
Length of Day
9h 24m
Waxing Gibbous, 88% of the Moon is Illuminated
Dec 13
Waxing Gibbous
Dec 17
Full
Dec 25
Last Quarter
Jan 1
New
Jan 7
First Quarter

Hourly Weather History & Observations

Time (EST) Temp. Windchill Dew Point Humidity Pressure Visibility Wind Dir Wind Speed Gust Speed Precip Events Conditions
12:15 AM 12.9 °F - 6.3 °F 75% 30.36 in 10.0 mi Calm Calm - N/A   Clear
12:35 AM 15.3 °F 9.6 °F 8.4 °F 74% 30.35 in 10.0 mi SW 3.5 mph - N/A   Clear
12:55 AM 14.4 °F 8.6 °F 7.7 °F 75% 30.35 in 10.0 mi SW 3.5 mph - N/A   Mostly Cloudy
1:15 AM 15.1 °F - 8.6 °F 76% 30.34 in 10.0 mi Calm Calm - N/A   Overcast
1:35 AM 17.6 °F - 8.6 °F 68% 30.33 in 10.0 mi Calm Calm - N/A   Overcast
1:55 AM 17.6 °F - 8.6 °F 68% 30.32 in 10.0 mi Calm Calm - N/A   Overcast
2:15 AM 17.6 °F 12.3 °F 8.6 °F 68% 30.32 in 10.0 mi SW 3.5 mph - N/A   Overcast
2:35 AM 18.0 °F 11.1 °F 8.6 °F 67% 30.32 in 10.0 mi SW 4.6 mph - N/A   Overcast
2:55 AM 17.8 °F 10.9 °F 8.4 °F 67% 30.32 in 10.0 mi SSW 4.6 mph - N/A   Overcast
3:15 AM 18.3 °F - 8.6 °F 66% 30.32 in 10.0 mi Calm Calm - N/A   Overcast
3:35 AM 18.1 °F 12.9 °F 8.1 °F 65% 30.31 in 10.0 mi SW 3.5 mph - N/A   Mostly Cloudy
3:55 AM 18.3 °F 13.1 °F 8.2 °F 65% 30.31 in 10.0 mi SW 3.5 mph - N/A   Scattered Clouds
4:15 AM 17.6 °F - 7.3 °F 64% 30.30 in 10.0 mi Calm Calm - N/A   Clear
4:35 AM 17.6 °F - 8.1 °F 66% 30.30 in 10.0 mi Calm Calm - N/A   Clear
4:55 AM 15.3 °F - 9.0 °F 76% 30.29 in 10.0 mi Calm Calm - N/A   Clear
5:15 AM 15.3 °F - 9.5 °F 78% 30.28 in 10.0 mi Calm Calm - N/A   Clear
5:35 AM 15.3 °F 9.6 °F 10.4 °F 81% 30.28 in 10.0 mi WSW 3.5 mph - N/A   Clear
5:55 AM 15.1 °F 9.4 °F 10.6 °F 82% 30.28 in 10.0 mi WSW 3.5 mph - N/A   Clear
6:15 AM 12.7 °F 6.7 °F 7.9 °F 81% 30.28 in 10.0 mi WSW 3.5 mph - N/A   Clear
6:35 AM 15.3 °F 9.6 °F 10.2 °F 80% 30.28 in 10.0 mi WSW 3.5 mph - N/A   Clear
6:55 AM 15.3 °F - 10.0 °F 80% 30.29 in 10.0 mi Calm Calm - N/A   Clear
7:15 AM 15.3 °F - 10.2 °F 80% 30.28 in 10.0 mi Calm Calm - N/A   Clear
7:35 AM 15.3 °F - 10.4 °F 81% 30.29 in 10.0 mi Calm Calm - N/A   Clear
7:55 AM 14.0 °F - 9.5 °F 82% 30.29 in 10.0 mi Calm Calm - N/A   Clear
8:15 AM 12.7 °F 6.7 °F 7.9 °F 81% 30.29 in 10.0 mi WSW 3.5 mph - N/A   Clear
8:35 AM 13.1 °F 7.1 °F 9.0 °F 84% 30.29 in 10.0 mi WSW 3.5 mph - N/A   Clear
8:55 AM 13.1 °F 7.1 °F 8.6 °F 82% 30.29 in 10.0 mi SW 3.5 mph - N/A   Clear
9:15 AM 15.4 °F 9.8 °F 10.8 °F 82% 30.28 in 10.0 mi SW 3.5 mph - N/A   Clear
9:35 AM 18.0 °F 11.1 °F 12.2 °F 78% 30.29 in 10.0 mi SW 4.6 mph - N/A   Clear
9:55 AM 20.8 °F 14.4 °F 11.8 °F 68% 30.29 in 10.0 mi SW 4.6 mph - N/A   Clear
10:15 AM 24.4 °F 16.5 °F 13.1 °F 62% 30.30 in 10.0 mi SSW 6.9 mph - N/A   Clear
10:35 AM 25.3 °F 16.7 °F 13.1 °F 60% 30.30 in 10.0 mi SSW 8.1 mph - N/A   Clear
10:55 AM 27.9 °F 20.6 °F 14.9 °F 58% 30.30 in 10.0 mi SSW 6.9 mph - N/A   Clear
11:15 AM 27.9 °F 19.8 °F 13.8 °F 56% 30.29 in 10.0 mi SW 8.1 mph - N/A   Clear
11:35 AM 28.2 °F 20.2 °F 13.1 °F 53% 30.28 in 10.0 mi SW 8.1 mph - N/A   Clear
11:55 AM 30.2 °F 24.3 °F 14.5 °F 52% 30.27 in 10.0 mi SW 5.8 mph - N/A   Clear
12:15 PM 32.5 °F 28.1 °F 16.5 °F 52% 30.26 in 10.0 mi SSW 4.6 mph - N/A   Clear
12:35 PM 32.5 °F 26.2 °F 15.4 °F 49% 30.25 in 10.0 mi SSW 6.9 mph - N/A   Clear
12:55 PM 32.5 °F 26.2 °F 15.6 °F 50% 30.24 in 10.0 mi South 6.9 mph - N/A   Clear
1:15 PM 32.5 °F 28.1 °F 16.9 °F 53% 30.23 in 10.0 mi SW 4.6 mph - N/A   Clear
1:35 PM 32.5 °F 25.5 °F 15.4 °F 49% 30.22 in 10.0 mi SW 8.1 mph - N/A   Clear
1:55 PM 33.4 °F 25.9 °F 15.3 °F 47% 30.21 in 10.0 mi SW 9.2 mph - N/A   Clear
2:15 PM 35.1 °F 28.6 °F 16.7 °F 47% 30.21 in 10.0 mi WSW 8.1 mph - N/A   Clear
2:35 PM 34.9 °F 29.0 °F 16.5 °F 47% 30.21 in 10.0 mi SW 6.9 mph - N/A   Clear
2:55 PM 35.1 °F 30.1 °F 17.2 °F 48% 30.21 in 10.0 mi SW 5.8 mph - N/A   Clear
3:15 PM 34.3 °F 31.4 °F 17.1 °F 49% 30.20 in 10.0 mi SW 3.5 mph - N/A   Clear
3:35 PM 35.1 °F 32.2 °F 16.9 °F 48% 30.20 in 10.0 mi SSW 3.5 mph - N/A   Clear
3:55 PM 35.1 °F 31.0 °F 15.6 °F 45% 30.19 in 10.0 mi South 4.6 mph - N/A   Clear
4:15 PM 35.1 °F 32.2 °F 16.3 °F 47% 30.19 in 10.0 mi South 3.5 mph - N/A   Clear
4:35 PM 35.1 °F 30.1 °F 15.8 °F 45% 30.18 in 10.0 mi South 5.8 mph - N/A   Clear
4:55 PM 35.1 °F 31.0 °F 16.5 °F 47% 30.18 in 10.0 mi SSW 4.6 mph - N/A   Clear
5:15 PM 35.1 °F - 16.5 °F 47% 30.18 in 10.0 mi Calm Calm - N/A   Clear
5:35 PM 32.5 °F - 18.1 °F 55% 30.19 in 10.0 mi Calm Calm - N/A   Clear
5:55 PM 32.5 °F - 19.9 °F 60% 30.18 in 10.0 mi Calm Calm - N/A   Clear
6:15 PM 32.5 °F - 23.7 °F 70% 30.19 in 10.0 mi Calm Calm - N/A   Clear
6:35 PM 30.2 °F - 22.3 °F 72% 30.20 in 10.0 mi Calm Calm - N/A   Clear
6:55 PM 30.6 °F - 22.8 °F 73% 30.21 in 10.0 mi Calm Calm - N/A   Clear
7:15 PM 30.2 °F - 22.5 °F 73% 30.22 in 10.0 mi Calm Calm - N/A   Clear
7:35 PM 30.2 °F - 22.5 °F 73% 30.21 in 10.0 mi Calm Calm - N/A   Clear
7:55 PM 32.5 °F - 25.3 °F 75% 30.21 in 10.0 mi Calm Calm - N/A   Mostly Cloudy
8:15 PM 32.5 °F - 24.1 °F 71% 30.21 in 10.0 mi Calm Calm - N/A   Overcast
8:35 PM 32.5 °F - 21.9 °F 65% 30.22 in 10.0 mi Calm Calm - N/A   Overcast
8:55 PM 32.5 °F - 25.0 °F 74% 30.22 in 10.0 mi Calm Calm - N/A   Overcast
9:15 PM 32.5 °F 29.3 °F 25.2 °F 74% 30.22 in 10.0 mi NNE 3.5 mph - N/A   Overcast
9:35 PM 32.5 °F - 22.1 °F 65% 30.21 in 7.0 mi Calm Calm - N/A Snow Light Snow
9:55 PM 35.1 °F 30.1 °F 23.9 °F 64% 30.20 in 7.0 mi South 5.8 mph - N/A Snow Light Snow
10:15 PM 35.1 °F 27.9 °F 27.9 °F 75% 30.19 in 2.5 mi SSW 9.2 mph - N/A Snow Light Snow
10:35 PM 32.5 °F - 28.4 °F 85% 30.18 in 2.0 mi Calm Calm - N/A Snow Light Snow
10:55 PM 32.5 °F - 28.9 °F 87% 30.17 in 3.0 mi Calm Calm - N/A Snow Light Snow
11:15 PM 32.5 °F - 29.1 °F 87% 30.18 in 7.0 mi Calm Calm - N/A   Overcast
11:35 PM 32.5 °F - 29.3 °F 88% 30.19 in 7.0 mi Calm Calm - N/A   Overcast
11:55 PM 32.5 °F - 29.3 °F 88% 30.18 in 5.0 mi Calm Calm - N/A   Overcast